Private Wetterstation Wechselburg
Wetterdaten: Freitag, 06.06.2014
Datum Zeit Temp. +2m Bodentemp. Temp.+5cm Temp. Wind Windchill X Diff Temp. Feuchte +2m Feuchte +5cm Sonnenschein Luftdruck Regen Wind Richtung Richtung Sonnenschein UV Taupunkt Windchill Windben
06.06.2014 00:00 9,6 C 24,7 C 10,3 C 9,0 C 7,9 C 0,0 C 82 % 82 % 0 % 1017,1 hPa 0,0 l/m 0,0 km/h (0 Bft) SW 225 0 min 0,0 UV-I 6,7 C 7,9 C 0,0 km/h (0 Bft)
06.06.2014 00:05 9,6 C 24,6 C 10,3 C 9,0 C 7,8 C 0,0 C 82 % 82 % 0 % 1017,1 hPa 0,0 l/m 0,0 km/h (0 Bft) SW 225 0 min 0,0 UV-I 6,7 C 7,8 C 0,0 km/h (0 Bft)
06.06.2014 00:10 9,5 C 24,6 C 10,0 C 8,9 C 7,6 C 0,0 C 82 % 82 % 0 % 1017,1 hPa 0,0 l/m 0,0 km/h (0 Bft) W-SW 247 0 min 0,0 UV-I 6,6 C 7,6 C 0,0 km/h (0 Bft)
06.06.2014 00:15 9,3 C 24,6 C 10,1 C 8,7 C 7,6 C 0,0 C 82 % 83 % 0 % 1017,1 hPa 0,0 l/m 0,0 km/h (0 Bft) W-SW 247 0 min 0,0 UV-I 6,4 C 7,6 C 0,0 km/h (0 Bft)
06.06.2014 00:20 9,2 C 24,6 C 9,9 C 8,7 C 7,6 C 0,0 C 83 % 83 % 0 % 1017,4 hPa 0,0 l/m 0,0 km/h (0 Bft) S 180 0 min 0,0 UV-I 6,5 C 7,6 C 0,0 km/h (0 Bft)
06.06.2014 00:25 9,1 C 24,6 C 9,9 C 8,6 C 7,5 C 0,0 C 83 % 83 % 0 % 1017,4 hPa 0,0 l/m 0,0 km/h (0 Bft) S-SW 202 0 min 0,0 UV-I 6,4 C 7,5 C 0,0 km/h (0 Bft)
06.06.2014 00:30 9,0 C 24,6 C 9,7 C 8,5 C 7,4 C 0,0 C 83 % 83 % 0 % 1017,4 hPa 0,0 l/m 0,0 km/h (0 Bft) S-SW 202 0 min 0,0 UV-I 6,3 C 7,4 C 0,0 km/h (0 Bft)
06.06.2014 00:35 8,9 C 24,6 C 9,7 C 8,4 C 7,4 C 0,0 C 83 % 83 % 0 % 1017,4 hPa 0,0 l/m 0,0 km/h (0 Bft) W-SW 247 0 min 0,0 UV-I 6,2 C 7,4 C 0,0 km/h (0 Bft)
06.06.2014 00:40 8,8 C 24,6 C 9,6 C 8,3 C 7,4 C 0,0 C 83 % 83 % 0 % 1017,4 hPa 0,0 l/m 0,0 km/h (0 Bft) S 180 0 min 0,0 UV-I 6,1 C 7,4 C 0,0 km/h (0 Bft)
06.06.2014 00:45 8,7 C 24,6 C 9,6 C 8,3 C 7,4 C 0,0 C 84 % 84 % 0 % 1017,4 hPa 0,0 l/m 0,0 km/h (0 Bft) W-SW 247 0 min 0,0 UV-I 6,2 C 7,4 C 0,0 km/h (0 Bft)
06.06.2014 00:50 8,7 C 24,6 C 9,6 C 8,3 C 7,4 C 0,0 C 84 % 84 % 0 % 1017,4 hPa 0,0 l/m 0,0 km/h (0 Bft) W 270 0 min 0,0 UV-I 6,2 C 7,4 C 0,0 km/h (0 Bft)
06.06.2014 00:55 8,5 C 24,6 C 9,5 C 8,1 C 7,2 C 0,0 C 84 % 84 % 0 % 1017,4 hPa 0,0 l/m 0,0 km/h (0 Bft) W 270 0 min 0,0 UV-I 6,0 C 7,2 C 0,0 km/h (0 Bft)
06.06.2014 01:00 8,4 C 24,6 C 9,5 C 8,0 C 7,2 C 0,0 C 84 % 84 % 0 % 1018,1 hPa 0,0 l/m 0,0 km/h (0 Bft) W 270 0 min 0,0 UV-I 5,9 C 7,2 C 0,0 km/h (0 Bft)
06.06.2014 01:05 8,3 C 24,6 C 9,5 C 7,9 C 7,1 C 0,0 C 84 % 84 % 0 % 1018,1 hPa 0,0 l/m 0,0 km/h (0 Bft) W 270 0 min 0,0 UV-I 5,8 C 7,1 C 0,0 km/h (0 Bft)
06.06.2014 01:10 8,2 C 24,5 C 9,3 C 7,8 C 7,0 C 0,0 C 84 % 84 % 0 % 1018,1 hPa 0,0 l/m 0,0 km/h (0 Bft) W-SW 247 0 min 0,0 UV-I 5,7 C 7,0 C 0,0 km/h (0 Bft)
06.06.2014 01:15 8,1 C 24,5 C 9,3 C 7,7 C 6,9 C 0,0 C 84 % 84 % 0 % 1018,1 hPa 0,0 l/m 0,0 km/h (0 Bft) W-SW 247 0 min 0,0 UV-I 5,6 C 6,9 C 0,0 km/h (0 Bft)
06.06.2014 01:20 8,0 C 24,6 C 9,1 C 7,6 C 6,8 C 0,0 C 84 % 84 % 0 % 1017,7 hPa 0,0 l/m 0,0 km/h (0 Bft) S 180 0 min 0,0 UV-I 5,5 C 6,8 C 0,0 km/h (0 Bft)
06.06.2014 01:25 7,9 C 24,6 C 9,1 C 7,5 C 6,8 C 0,0 C 84 % 84 % 0 % 1017,7 hPa 0,0 l/m 0,0 km/h (0 Bft) S 180 0 min 0,0 UV-I 5,4 C 6,8 C 0,0 km/h (0 Bft)
06.06.2014 01:30 7,8 C 24,6 C 8,9 C 7,4 C 6,6 C 0,0 C 85 % 84 % 0 % 1017,7 hPa 0,0 l/m 0,0 km/h (0 Bft) S-SW 202 0 min 0,0 UV-I 5,4 C 6,6 C 0,0 km/h (0 Bft)
06.06.2014 01:35 7,7 C 24,5 C 8,9 C 7,3 C 6,6 C 0,0 C 85 % 84 % 0 % 1017,7 hPa 0,0 l/m 0,0 km/h (0 Bft) S 180 0 min 0,0 UV-I 5,3 C 6,6 C 0,0 km/h (0 Bft)
06.06.2014 01:40 7,6 C 24,6 C 8,8 C 7,3 C 6,6 C 0,0 C 84 % 84 % 0 % 1017,9 hPa 0,0 l/m 0,0 km/h (0 Bft) W 270 0 min 0,0 UV-I 5,1 C 6,6 C 0,0 km/h (0 Bft)
06.06.2014 01:45 7,5 C 24,5 C 8,7 C 7,2 C 6,5 C 0,0 C 85 % 84 % 0 % 1017,9 hPa 0,0 l/m 0,0 km/h (0 Bft) SW 225 0 min 0,0 UV-I 5,1 C 6,5 C 0,0 km/h (0 Bft)
06.06.2014 01:50 7,4 C 24,5 C 8,7 C 7,1 C 6,4 C 0,0 C 85 % 84 % 0 % 1017,9 hPa 0,0 l/m 0,0 km/h (0 Bft) S-SW 202 0 min 0,0 UV-I 5,0 C 6,4 C 0,0 km/h (0 Bft)
06.06.2014 01:55 7,3 C 24,5 C 8,6 C 7,0 C 6,4 C 0,0 C 85 % 84 % 0 % 1017,9 hPa 0,0 l/m 0,0 km/h (0 Bft) W-SW 247 0 min 0,0 UV-I 4,9 C 6,4 C 0,0 km/h (0 Bft)
06.06.2014 02:00 7,2 C 24,5 C 8,5 C 6,9 C 6,4 C 0,0 C 85 % 84 % 0 % 1018,0 hPa 0,0 l/m 0,0 km/h (0 Bft) W-NW 292 0 min 0,0 UV-I 4,9 C 6,4 C 0,0 km/h (0 Bft)
06.06.2014 02:05 7,1 C 24,5 C 8,4 C 6,9 C 6,4 C 0,0 C 85 % 84 % 0 % 1018,0 hPa 0,0 l/m 0,0 km/h (0 Bft) W-SW 247 0 min 0,0 UV-I 4,8 C 6,4 C 0,0 km/h (0 Bft)
06.06.2014 02:10 7,0 C 24,5 C 8,5 C 6,8 C 6,3 C 0,0 C 85 % 85 % 0 % 1018,0 hPa 0,0 l/m 0,0 km/h (0 Bft) S 180 0 min 0,0 UV-I 4,7 C 6,3 C 0,0 km/h (0 Bft)
06.06.2014 02:15 6,9 C 24,5 C 8,4 C 6,7 C 6,2 C 0,0 C 85 % 85 % 0 % 1018,0 hPa 0,0 l/m 0,0 km/h (0 Bft) S 180 0 min 0,0 UV-I 4,6 C 6,2 C 0,0 km/h (0 Bft)
06.06.2014 02:20 6,9 C 24,5 C 8,3 C 6,6 C 6,1 C 0,0 C 85 % 85 % 0 % 1017,9 hPa 0,0 l/m 0,0 km/h (0 Bft) W 270 0 min 0,0 UV-I 4,6 C 6,1 C 0,0 km/h (0 Bft)
06.06.2014 02:25 6,8 C 24,4 C 8,4 C 6,6 C 6,1 C 0,0 C 85 % 85 % 0 % 1017,9 hPa 0,0 l/m 0,0 km/h (0 Bft) W-SW 247 0 min 0,0 UV-I 4,5 C 6,1 C 0,0 km/h (0 Bft)
06.06.2014 02:30 6,7 C 24,4 C 8,3 C 6,5 C 6,1 C 0,0 C 85 % 85 % 0 % 1017,9 hPa 0,0 l/m 0,0 km/h (0 Bft) SW 225 0 min 0,0 UV-I 4,4 C 6,1 C 0,0 km/h (0 Bft)
06.06.2014 02:35 6,7 C 24,4 C 8,1 C 6,5 C 6,0 C 0,0 C 85 % 85 % 0 % 1017,9 hPa 0,0 l/m 0,0 km/h (0 Bft) W-NW 292 0 min 0,0 UV-I 4,4 C 6,0 C 0,0 km/h (0 Bft)
06.06.2014 02:40 6,4 C 24,5 C 8,1 C 6,3 C 6,1 C 0,0 C 85 % 85 % 0 % 1018,1 hPa 0,0 l/m 0,0 km/h (0 Bft) O-NO 67 0 min 0,0 UV-I 4,1 C 6,1 C 0,0 km/h (0 Bft)
06.06.2014 02:45 6,4 C 24,6 C 8,0 C 6,3 C 6,1 C 0,0 C 86 % 85 % 0 % 1018,1 hPa 0,0 l/m 0,0 km/h (0 Bft) O-NO 67 0 min 0,0 UV-I 4,2 C 6,1 C 0,0 km/h (0 Bft)
06.06.2014 02:50 6,4 C 24,4 C 8,1 C 6,3 C 6,1 C 0,0 C 86 % 85 % 0 % 1018,1 hPa 0,0 l/m 0,0 km/h (0 Bft) N-NW 337 0 min 0,0 UV-I 4,2 C 6,1 C 0,0 km/h (0 Bft)
06.06.2014 02:55 6,3 C 24,4 C 8,0 C 6,2 C 6,1 C 0,0 C 86 % 85 % 0 % 1018,1 hPa 0,0 l/m 0,0 km/h (0 Bft) W 270 0 min 0,0 UV-I 4,1 C 6,1 C 0,0 km/h (0 Bft)
06.06.2014 03:00 6,3 C 24,4 C 8,1 C 6,2 C 5,9 C 0,0 C 86 % 85 % 0 % 1018,2 hPa 0,0 l/m 0,0 km/h (0 Bft) W-SW 247 0 min 0,0 UV-I 4,1 C 5,9 C 0,0 km/h (0 Bft)
06.06.2014 03:05 6,3 C 24,4 C 7,9 C 6,1 C 5,8 C 0,0 C 86 % 85 % 0 % 1018,2 hPa 0,0 l/m 0,0 km/h (0 Bft) S-SW 202 0 min 0,0 UV-I 4,1 C 5,8 C 0,0 km/h (0 Bft)
06.06.2014 03:10 6,1 C 24,4 C 7,9 C 6,0 C 5,8 C 0,0 C 86 % 85 % 0 % 1018,2 hPa 0,0 l/m 0,0 km/h (0 Bft) S 180 0 min 0,0 UV-I 3,9 C 5,8 C 0,0 km/h (0 Bft)
06.06.2014 03:15 6,0 C 24,3 C 7,7 C 5,9 C 5,7 C 0,0 C 86 % 85 % 0 % 1018,2 hPa 0,0 l/m 0,0 km/h (0 Bft) W 270 0 min 0,0 UV-I 3,8 C 5,7 C 0,0 km/h (0 Bft)
06.06.2014 03:20 6,0 C 24,4 C 7,7 C 5,9 C 5,6 C 0,0 C 86 % 86 % 0 % 1018,1 hPa 0,0 l/m 0,0 km/h (0 Bft) W 270 0 min 0,0 UV-I 3,8 C 5,6 C 0,0 km/h (0 Bft)
06.06.2014 03:25 5,9 C 24,3 C 7,7 C 5,8 C 5,6 C 0,0 C 86 % 86 % 0 % 1018,1 hPa 0,0 l/m 0,0 km/h (0 Bft) W-SW 247 0 min 0,0 UV-I 3,7 C 5,6 C 0,0 km/h (0 Bft)
06.06.2014 03:30 5,8 C 24,3 C 7,6 C 5,7 C 5,6 C 0,0 C 86 % 86 % 0 % 1018,1 hPa 0,0 l/m 0,0 km/h (0 Bft) S 180 0 min 0,0 UV-I 3,6 C 5,6 C 0,0 km/h (0 Bft)
06.06.2014 03:35 5,9 C 24,3 C 7,6 C 5,8 C 5,5 C 0,0 C 86 % 86 % 0 % 1018,1 hPa 0,0 l/m 0,0 km/h (0 Bft) SW 225 0 min 0,0 UV-I 3,7 C 5,5 C 0,0 km/h (0 Bft)
06.06.2014 03:40 5,7 C 24,3 C 7,7 C 5,6 C 5,4 C 0,0 C 86 % 86 % 0 % 1018,4 hPa 0,0 l/m 0,0 km/h (0 Bft) S 180 0 min 0,0 UV-I 3,5 C 5,4 C 0,0 km/h (0 Bft)
06.06.2014 03:45 5,7 C 24,3 C 7,5 C 5,6 C 5,3 C 0,0 C 86 % 86 % 0 % 1018,4 hPa 0,0 l/m 0,0 km/h (0 Bft) SW 225 0 min 0,0 UV-I 3,5 C 5,3 C 0,0 km/h (0 Bft)
06.06.2014 03:50 5,6 C 24,3 C 7,5 C 5,5 C 5,2 C 0,0 C 86 % 86 % 0 % 1018,4 hPa 0,0 l/m 0,0 km/h (0 Bft) W-SW 247 0 min 0,0 UV-I 3,4 C 5,2 C 0,0 km/h (0 Bft)
06.06.2014 03:55 5,6 C 24,2 C 7,5 C 5,5 C 5,2 C 0,0 C 87 % 86 % 0 % 1018,4 hPa 0,0 l/m 0,0 km/h (0 Bft) W-SW 247 0 min 0,0 UV-I 3,6 C 5,2 C 0,0 km/h (0 Bft)
06.06.2014 04:00 5,5 C 24,2 C 7,3 C 5,4 C 5,1 C 0,0 C 87 % 86 % 0 % 1018,3 hPa 0,0 l/m 0,0 km/h (0 Bft) S 180 0 min 0,0 UV-I 3,5 C 5,1 C 0,0 km/h (0 Bft)
06.06.2014 04:05 5,4 C 24,2 C 7,3 C 5,3 C 5,1 C 0,0 C 87 % 86 % 0 % 1018,3 hPa 0,0 l/m 0,0 km/h (0 Bft) S 180 0 min 0,0 UV-I 3,4 C 5,1 C 0,0 km/h (0 Bft)
06.06.2014 04:10 5,5 C 24,2 C 7,3 C 5,4 C 5,1 C 0,0 C 87 % 86 % 0 % 1018,3 hPa 0,0 l/m 0,0 km/h (0 Bft) S 180 0 min 0,0 UV-I 3,5 C 5,1 C 0,0 km/h (0 Bft)
06.06.2014 04:15 5,4 C 24,2 C 7,3 C 5,3 C 5,2 C 0,0 C 87 % 86 % 0 % 1018,3 hPa 0,0 l/m 0,0 km/h (0 Bft) SO 135 0 min 0,0 UV-I 3,4 C 5,2 C 0,0 km/h (0 Bft)
06.06.2014 04:20 5,3 C 24,2 C 7,2 C 5,3 C 5,3 C 0,0 C 87 % 86 % 0 % 1018,4 hPa 0,0 l/m 0,0 km/h (0 Bft) SO 135 0 min 0,0 UV-I 3,3 C 5,3 C 0,0 km/h (0 Bft)
06.06.2014 04:25 5,3 C 24,1 C 7,3 C 5,3 C 5,3 C 0,0 C 86 % 86 % 0 % 1018,4 hPa 0,0 l/m 0,0 km/h (0 Bft) W-SW 247 0 min 0,0 UV-I 3,2 C 5,3 C 0,0 km/h (0 Bft)
06.06.2014 04:30 5,2 C 24,1 C 7,2 C 5,3 C 5,3 C 0,1 C 87 % 86 % 0 % 1018,4 hPa 0,0 l/m 0,0 km/h (0 Bft) W 270 0 min 0,0 UV-I 3,2 C 5,3 C 0,0 km/h (0 Bft)
06.06.2014 04:35 5,2 C 24,1 C 7,1 C 5,2 C 5,2 C 0,0 C 87 % 86 % 0 % 1018,4 hPa 0,0 l/m 0,0 km/h (0 Bft) W 270 0 min 0,0 UV-I 3,2 C 5,2 C 0,0 km/h (0 Bft)
06.06.2014 04:40 5,3 C 24,1 C 7,1 C 5,2 C 5,1 C 0,0 C 87 % 86 % 0 % 1018,6 hPa 0,0 l/m 0,0 km/h (0 Bft) W 270 0 min 0,0 UV-I 3,3 C 5,1 C 0,0 km/h (0 Bft)
06.06.2014 04:45 5,2 C 24,1 C 7,1 C 5,2 C 5,1 C 0,0 C 87 % 86 % 0 % 1018,6 hPa 0,0 l/m 0,0 km/h (0 Bft) W 270 0 min 0,0 UV-I 3,2 C 5,1 C 0,0 km/h (0 Bft)
06.06.2014 04:50 5,2 C 24,1 C 7,1 C 5,2 C 5,1 C 0,0 C 87 % 86 % 0 % 1018,6 hPa 0,0 l/m 0,0 km/h (0 Bft) W 270 0 min 0,0 UV-I 3,2 C 5,1 C 0,0 km/h (0 Bft)
06.06.2014 04:55 5,1 C 24,1 C 7,1 C 5,1 C 5,1 C 0,0 C 87 % 86 % 0 % 1018,6 hPa 0,0 l/m 0,0 km/h (0 Bft) W 270 0 min 0,0 UV-I 3,1 C 5,1 C 0,0 km/h (0 Bft)
06.06.2014 05:00 5,0 C 24,2 C 6,9 C 5,0 C 4,9 C 0,0 C 87 % 86 % 0 % 1018,9 hPa 0,0 l/m 0,0 km/h (0 Bft) W 270 0 min 0,0 UV-I 3,0 C 4,9 C 0,0 km/h (0 Bft)
06.06.2014 05:05 5,1 C 24,1 C 6,9 C 5,0 C 4,7 C 0,0 C 87 % 86 % 0 % 1018,9 hPa 0,0 l/m 0,0 km/h (0 Bft) W 270 0 min 0,0 UV-I 3,1 C 4,7 C 0,0 km/h (0 Bft)
06.06.2014 05:10 4,9 C 24,1 C 6,9 C 4,8 C 4,7 C 0,0 C 87 % 86 % 0 % 1018,9 hPa 0,0 l/m 0,0 km/h (0 Bft) W-SW 247 0 min 0,0 UV-I 2,9 C 4,7 C 0,0 km/h (0 Bft)
06.06.2014 05:15 4,9 C 24,1 C 6,8 C 4,8 C 4,6 C 0,0 C 87 % 86 % 0 % 1018,9 hPa 0,0 l/m 0,0 km/h (0 Bft) W-SW 247 0 min 0,0 UV-I 2,9 C 4,6 C 0,0 km/h (0 Bft)
06.06.2014 05:20 4,8 C 24,1 C 6,8 C 4,8 C 4,8 C 0,0 C 87 % 86 % 0 % 1019,6 hPa 0,0 l/m 0,0 km/h (0 Bft) W 270 0 min 0,0 UV-I 2,8 C 4,8 C 0,0 km/h (0 Bft)
06.06.2014 05:25 4,8 C 24,0 C 6,8 C 4,8 C 4,8 C 0,0 C 87 % 86 % 0 % 1019,6 hPa 0,0 l/m 0,0 km/h (0 Bft) SW 225 0 min 0,0 UV-I 2,8 C 4,8 C 0,0 km/h (0 Bft)
06.06.2014 05:30 4,8 C 24,0 C 6,7 C 4,8 C 4,8 C 0,0 C 87 % 86 % 0 % 1019,6 hPa 0,0 l/m 0,0 km/h (0 Bft) W-SW 247 0 min 0,0 UV-I 2,8 C 4,8 C 0,0 km/h (0 Bft)
06.06.2014 05:35 4,7 C 24,0 C 6,7 C 4,8 C 4,8 C 0,1 C 87 % 86 % 3 % 1019,6 hPa 0,0 l/m 0,0 km/h (0 Bft) W-SW 247 0 min 0,0 UV-I 2,7 C 4,8 C 0,0 km/h (0 Bft)
06.06.2014 05:40 4,7 C 23,9 C 6,7 C 4,9 C 4,9 C 0,2 C 87 % 86 % 5 % 1019,2 hPa 0,0 l/m 0,0 km/h (0 Bft) W-SW 247 0 min 0,0 UV-I 2,7 C 4,9 C 0,0 km/h (0 Bft)
06.06.2014 05:45 4,7 C 24,0 C 6,7 C 4,9 C 4,9 C 0,2 C 87 % 86 % 5 % 1019,2 hPa 0,0 l/m 0,0 km/h (0 Bft) W-SW 247 0 min 0,0 UV-I 2,7 C 4,9 C 0,0 km/h (0 Bft)
06.06.2014 05:50 4,7 C 24,0 C 6,8 C 5,1 C 5,1 C 0,4 C 87 % 86 % 11 % 1019,2 hPa 0,0 l/m 0,0 km/h (0 Bft) W-SW 247 0 min 0,0 UV-I 2,7 C 5,1 C 0,0 km/h (0 Bft)
06.06.2014 05:55 4,7 C 24,0 C 6,8 C 5,2 C 5,2 C 0,5 C 88 % 86 % 13 % 1019,2 hPa 0,0 l/m 0,0 km/h (0 Bft) S-SW 202 0 min 0,0 UV-I 2,9 C 5,2 C 0,0 km/h (0 Bft)
06.06.2014 06:00 4,7 C 24,0 C 6,9 C 5,3 C 5,3 C 0,6 C 88 % 86 % 16 % 1019,3 hPa 0,0 l/m 0,0 km/h (0 Bft) SW 225 0 min 0,0 UV-I 2,9 C 5,3 C 0,0 km/h (0 Bft)
06.06.2014 06:05 4,7 C 23,9 C 6,9 C 5,4 C 5,4 C 0,7 C 88 % 86 % 18 % 1019,3 hPa 0,0 l/m 0,0 km/h (0 Bft) SW 225 0 min 0,0 UV-I 2,9 C 5,4 C 0,0 km/h (0 Bft)
06.06.2014 06:10 4,7 C 23,9 C 7,0 C 5,4 C 5,4 C 0,7 C 88 % 86 % 18 % 1019,3 hPa 0,0 l/m 0,0 km/h (0 Bft) W-SW 247 0 min 0,0 UV-I 2,9 C 5,4 C 0,0 km/h (0 Bft)
06.06.2014 06:15 4,7 C 23,9 C 7,0 C 5,4 C 5,4 C 0,7 C 88 % 86 % 18 % 1019,3 hPa 0,0 l/m 0,0 km/h (0 Bft) W-SW 247 0 min 0,0 UV-I 2,9 C 5,4 C 0,0 km/h (0 Bft)
06.06.2014 06:20 4,8 C 23,9 C 7,1 C 5,6 C 5,6 C 0,8 C 88 % 86 % 21 % 1019,2 hPa 0,0 l/m 0,0 km/h (0 Bft) W-SW 247 0 min 0,0 UV-I 3,0 C 5,6 C 0,0 km/h (0 Bft)
06.06.2014 06:25 4,8 C 23,9 C 7,2 C 5,7 C 5,7 C 0,9 C 88 % 86 % 24 % 1019,2 hPa 0,0 l/m 0,0 km/h (0 Bft) W-SW 247 0 min 0,0 UV-I 3,0 C 5,7 C 0,0 km/h (0 Bft)
06.06.2014 06:30 4,9 C 23,7 C 7,2 C 5,9 C 5,9 C 1,0 C 89 % 86 % 26 % 1019,2 hPa 0,0 l/m 0,0 km/h (0 Bft) W-SW 247 0 min 0,0 UV-I 3,2 C 5,9 C 0,0 km/h (0 Bft)
06.06.2014 06:35 4,9 C 23,7 C 7,3 C 6,1 C 6,1 C 1,2 C 89 % 86 % 32 % 1019,2 hPa 0,0 l/m 0,0 km/h (0 Bft) W-SW 247 0 min 0,0 UV-I 3,2 C 6,1 C 0,0 km/h (0 Bft)
06.06.2014 06:40 5,1 C 23,7 C 7,6 C 6,4 C 6,4 C 1,3 C 89 % 86 % 34 % 1019,4 hPa 0,0 l/m 0,0 km/h (0 Bft) W-SW 247 0 min 0,0 UV-I 3,4 C 6,4 C 0,0 km/h (0 Bft)
06.06.2014 06:45 5,2 C 23,7 C 7,9 C 6,6 C 6,6 C 1,4 C 89 % 86 % 37 % 1019,4 hPa 0,0 l/m 0,0 km/h (0 Bft) SW 225 0 min 0,0 UV-I 3,5 C 6,6 C 0,0 km/h (0 Bft)
06.06.2014 06:50 5,3 C 23,7 C 8,3 C 6,8 C 6,8 C 1,5 C 89 % 87 % 39 % 1019,4 hPa 0,0 l/m 0,0 km/h (0 Bft) W-SW 247 0 min 0,0 UV-I 3,6 C 6,8 C 0,0 km/h (0 Bft)
06.06.2014 06:55 5,4 C 23,6 C 8,5 C 7,1 C 7,1 C 1,7 C 89 % 86 % 45 % 1019,4 hPa 0,0 l/m 0,0 km/h (0 Bft) SW 225 0 min 0,0 UV-I 3,7 C 7,1 C 0,0 km/h (0 Bft)
06.06.2014 07:00 5,7 C 23,6 C 8,9 C 10,4 C 10,4 C 4,7 C 89 % 86 % 100 % 1019,6 hPa 0,0 l/m 0,0 km/h (0 Bft) SW 225 5 min 0,0 UV-I 4,0 C 10,4 C 0,0 km/h (0 Bft)
06.06.2014 07:05 5,9 C 23,6 C 9,1 C 12,2 C 12,2 C 6,3 C 89 % 86 % 100 % 1019,6 hPa 0,0 l/m 0,0 km/h (0 Bft) S-SW 202 5 min 0,0 UV-I 4,2 C 12,2 C 0,0 km/h (0 Bft)
06.06.2014 07:10 6,3 C 23,6 C 9,3 C 14,3 C 14,3 C 8,0 C 90 % 85 % 100 % 1019,6 hPa 0,0 l/m 0,0 km/h (0 Bft) SW 225 5 min 0,0 UV-I 4,8 C 14,3 C 0,0 km/h (0 Bft)
06.06.2014 07:15 6,7 C 23,6 C 9,5 C 15,7 C 15,7 C 9,0 C 90 % 85 % 100 % 1019,6 hPa 0,0 l/m 0,0 km/h (0 Bft) NW 315 5 min 0,3 UV-I 5,2 C 15,7 C 0,0 km/h (0 Bft)
06.06.2014 07:20 6,9 C 23,5 C 9,9 C 17,5 C 17,5 C 10,6 C 90 % 85 % 100 % 1019,4 hPa 0,0 l/m 0,0 km/h (0 Bft) W 270 5 min 1,1 UV-I 5,4 C 17,5 C 0,0 km/h (0 Bft)
06.06.2014 07:25 7,3 C 23,5 C 10,1 C 18,6 C 18,6 C 11,3 C 91 % 85 % 100 % 1019,4 hPa 0,0 l/m 0,0 km/h (0 Bft) S 180 5 min 0,0 UV-I 5,9 C 18,6 C 0,0 km/h (0 Bft)
06.06.2014 07:30 8,0 C 23,4 C 10,3 C 19,4 C 19,4 C 11,4 C 91 % 84 % 100 % 1019,4 hPa 0,0 l/m 0,0 km/h (0 Bft) W-SW 247 5 min 0,0 UV-I 6,6 C 19,4 C 0,0 km/h (0 Bft)
06.06.2014 07:35 8,4 C 23,4 C 10,4 C 19,4 C 19,4 C 11,0 C 91 % 84 % 100 % 1019,4 hPa 0,0 l/m 0,0 km/h (0 Bft) W 270 5 min 0,0 UV-I 7,0 C 19,4 C 0,0 km/h (0 Bft)
06.06.2014 07:40 8,9 C 23,4 C 10,7 C 20,5 C 20,5 C 11,6 C 91 % 84 % 100 % 1019,6 hPa 0,0 l/m 0,0 km/h (0 Bft) S 180 5 min 0,0 UV-I 7,5 C 20,5 C 0,0 km/h (0 Bft)
06.06.2014 07:45 9,3 C 23,4 C 10,9 C 21,0 C 21,0 C 11,7 C 91 % 83 % 100 % 1019,6 hPa 0,0 l/m 0,0 km/h (0 Bft) W 270 5 min 0,0 UV-I 7,9 C 21,0 C 0,0 km/h (0 Bft)
06.06.2014 07:50 9,8 C 23,4 C 11,1 C 22,1 C 22,1 C 12,3 C 90 % 83 % 100 % 1019,6 hPa 0,0 l/m 0,0 km/h (0 Bft) N 360 5 min 0,0 UV-I 8,2 C 22,1 C 0,0 km/h (0 Bft)
06.06.2014 07:55 10,3 C 23,4 C 11,2 C 22,9 C 22,9 C 12,6 C 90 % 83 % 100 % 1019,6 hPa 0,0 l/m 0,0 km/h (0 Bft) W 270 5 min 0,0 UV-I 8,7 C 22,9 C 0,0 km/h (0 Bft)
06.06.2014 08:00 10,8 C 23,4 C 11,5 C 23,6 C 23,6 C 12,8 C 89 % 84 % 100 % 1019,3 hPa 0,0 l/m 0,0 km/h (0 Bft) W-SW 247 5 min 0,0 UV-I 9,1 C 23,6 C 0,0 km/h (0 Bft)
06.06.2014 08:05 11,0 C 23,4 C 11,4 C 24,0 C 24,0 C 13,0 C 89 % 83 % 100 % 1019,3 hPa 0,0 l/m 0,0 km/h (0 Bft) W-NW 292 5 min 0,0 UV-I 9,3 C 24,0 C 0,0 km/h (0 Bft)
06.06.2014 08:10 11,6 C 23,4 C 11,6 C 23,9 C 23,9 C 12,3 C 87 % 83 % 100 % 1019,3 hPa 0,0 l/m 0,0 km/h (0 Bft) SW 225 5 min 0,0 UV-I 9,5 C 23,9 C 0,0 km/h (0 Bft)
06.06.2014 08:15 11,8 C 23,4 C 11,9 C 22,1 C 22,1 C 10,3 C 86 % 83 % 100 % 1019,3 hPa 0,0 l/m 0,0 km/h (0 Bft) W-SW 247 5 min 0,0 UV-I 9,5 C 22,1 C 0,0 km/h (0 Bft)
06.06.2014 08:20 12,3 C 23,4 C 12,1 C 21,1 C 21,1 C 8,8 C 85 % 83 % 100 % 1019,7 hPa 0,0 l/m 0,0 km/h (0 Bft) W-SW 247 5 min 0,0 UV-I 9,9 C 21,1 C 0,0 km/h (0 Bft)
06.06.2014 08:25 12,4 C 23,4 C 12,3 C 20,5 C 20,5 C 8,1 C 85 % 83 % 100 % 1019,7 hPa 0,0 l/m 0,0 km/h (0 Bft) W-SW 247 5 min 0,0 UV-I 9,9 C 20,5 C 0,0 km/h (0 Bft)
06.06.2014 08:30 13,1 C 23,4 C 12,7 C 20,5 C 20,5 C 7,4 C 84 % 83 % 100 % 1019,7 hPa 0,0 l/m 0,0 km/h (0 Bft) W-SW 247 5 min 0,0 UV-I 10,5 C 20,5 C 0,0 km/h (0 Bft)
06.06.2014 08:35 13,3 C 23,3 C 12,9 C 22,0 C 22,0 C 8,7 C 83 % 83 % 100 % 1019,7 hPa 0,0 l/m 0,0 km/h (0 Bft) W-SW 247 5 min 0,0 UV-I 10,5 C 22,0 C 0,0 km/h (0 Bft)
06.06.2014 08:40 14,0 C 23,3 C 13,2 C 22,1 C 22,1 C 8,1 C 81 % 82 % 100 % 1019,7 hPa 0,0 l/m 0,0 km/h (0 Bft) W 270 5 min 0,0 UV-I 10,8 C 22,1 C 0,0 km/h (0 Bft)
06.06.2014 08:45 14,3 C 23,3 C 13,3 C 23,0 C 23,0 C 8,7 C 81 % 82 % 100 % 1019,7 hPa 0,0 l/m 0,0 km/h (0 Bft) W 270 5 min 0,0 UV-I 11,1 C 23,0 C 0,0 km/h (0 Bft)
06.06.2014 08:50 14,9 C 23,3 C 13,5 C 24,8 C 24,8 C 9,9 C 80 % 82 % 100 % 1019,7 hPa 0,0 l/m 0,0 km/h (0 Bft) S-SW 202 5 min 0,0 UV-I 11,5 C 24,8 C 0,0 km/h (0 Bft)
06.06.2014 08:55 15,2 C 23,3 C 13,6 C 26,3 C 26,3 C 11,1 C 79 % 82 % 100 % 1019,7 hPa 0,0 l/m 0,0 km/h (0 Bft) W-SW 247 5 min 0,0 UV-I 11,6 C 26,3 C 0,0 km/h (0 Bft)
06.06.2014 09:00 15,8 C 23,4 C 13,8 C 27,6 C 27,6 C 11,8 C 77 % 82 % 100 % 1019,8 hPa 0,0 l/m 0,0 km/h (0 Bft) NO 45 5 min 0,0 UV-I 11,8 C 27,6 C 0,0 km/h (0 Bft)
06.06.2014 09:05 16,7 C 23,4 C 14,1 C 27,5 C 27,5 C 10,8 C 75 % 81 % 100 % 1019,8 hPa 0,0 l/m 0,0 km/h (0 Bft) NO 45 5 min 0,0 UV-I 12,2 C 27,5 C 0,0 km/h (0 Bft)
06.06.2014 09:10 17,6 C 23,4 C 14,3 C 27,5 C 27,5 C 9,9 C 72 % 80 % 100 % 1019,8 hPa 0,0 l/m 0,0 km/h (0 Bft) W-SW 247 5 min 0,0 UV-I 12,5 C 27,5 C 0,0 km/h (0 Bft)
06.06.2014 09:15 17,7 C 23,4 C 14,3 C 28,0 C 28,0 C 10,3 C 70 % 80 % 100 % 1019,8 hPa 0,0 l/m 0,0 km/h (0 Bft) SW 225 5 min 0,0 UV-I 12,2 C 28,0 C 0,0 km/h (0 Bft)
06.06.2014 09:20 18,0 C 23,3 C 14,4 C 28,9 C 28,9 C 10,9 C 68 % 80 % 100 % 1019,4 hPa 0,0 l/m 0,0 km/h (0 Bft) S 180 5 min 0,0 UV-I 12,0 C 28,9 C 0,0 km/h (0 Bft)
06.06.2014 09:25 18,0 C 23,3 C 14,4 C 29,1 C 29,1 C 11,1 C 68 % 79 % 100 % 1019,4 hPa 0,0 l/m 0,0 km/h (0 Bft) W 270 5 min 0,0 UV-I 12,0 C 29,1 C 0,0 km/h (0 Bft)
06.06.2014 09:30 18,1 C 23,3 C 14,5 C 29,3 C 29,3 C 11,2 C 67 % 79 % 100 % 1019,4 hPa 0,0 l/m 0,0 km/h (0 Bft) S 180 5 min 0,0 UV-I 11,9 C 29,3 C 0,0 km/h (0 Bft)
06.06.2014 09:35 18,5 C 23,3 C 14,7 C 29,6 C 29,6 C 11,1 C 67 % 80 % 100 % 1019,4 hPa 0,0 l/m 0,0 km/h (0 Bft) O-SO 112 5 min 0,0 UV-I 12,3 C 29,6 C 0,0 km/h (0 Bft)
06.06.2014 09:40 18,6 C 23,3 C 14,8 C 29,3 C 29,3 C 10,7 C 64 % 79 % 100 % 1019,5 hPa 0,0 l/m 0,0 km/h (0 Bft) O-SO 112 5 min 0,0 UV-I 11,7 C 29,3 C 0,0 km/h (0 Bft)
06.06.2014 09:45 18,8 C 23,3 C 15,1 C 29,2 C 29,2 C 10,4 C 63 % 79 % 100 % 1019,5 hPa 0,0 l/m 0,2 km/h (0 Bft) O-NO 67 5 min 0,0 UV-I 11,6 C 29,2 C 2,3 km/h (1 Bft)
06.06.2014 09:50 18,9 C 23,3 C 15,6 C 28,5 C 28,5 C 9,6 C 61 % 76 % 100 % 1019,5 hPa 0,0 l/m 1,0 km/h (0 Bft) NW 315 5 min 0,0 UV-I 11,2 C 28,5 C 2,6 km/h (1 Bft)
06.06.2014 09:55 18,8 C 23,4 C 15,9 C 28,3 C 28,3 C 9,5 C 60 % 74 % 100 % 1019,5 hPa 0,0 l/m 1,3 km/h (1 Bft) SO 135 5 min 0,0 UV-I 10,9 C 28,3 C 1,9 km/h (1 Bft)
06.06.2014 10:00 18,8 C 23,4 C 16,1 C 27,9 C 27,9 C 9,1 C 57 % 73 % 100 % 1019,4 hPa 0,0 l/m 1,3 km/h (1 Bft) NO 45 5 min 0,0 UV-I 10,1 C 27,9 C 4,7 km/h (1 Bft)
06.06.2014 10:05 18,8 C 23,4 C 16,3 C 27,7 C 27,7 C 8,9 C 57 % 72 % 100 % 1019,4 hPa 0,0 l/m 1,8 km/h (1 Bft) O-NO 67 5 min 0,0 UV-I 10,1 C 27,7 C 5,3 km/h (1 Bft)
06.06.2014 10:10 18,8 C 23,4 C 16,3 C 27,2 C 27,2 C 8,4 C 58 % 72 % 100 % 1019,4 hPa 0,0 l/m 1,9 km/h (1 Bft) O 90 5 min 0,0 UV-I 10,4 C 27,2 C 7,4 km/h (2 Bft)
06.06.2014 10:15 18,9 C 23,4 C 16,5 C 27,0 C 27,0 C 8,1 C 57 % 71 % 100 % 1019,4 hPa 0,0 l/m 2,7 km/h (1 Bft) O-SO 112 5 min 0,0 UV-I 10,2 C 27,0 C 2,7 km/h (1 Bft)
06.06.2014 10:20 19,1 C 23,4 C 16,8 C 26,7 C 26,7 C 7,6 C 57 % 70 % 100 % 1019,4 hPa 0,0 l/m 2,4 km/h (1 Bft) S-SW 202 5 min 0,0 UV-I 10,4 C 26,7 C 0,0 km/h (0 Bft)
06.06.2014 10:25 19,0 C 23,4 C 16,7 C 27,9 C 27,9 C 8,9 C 58 % 70 % 100 % 1019,4 hPa 0,0 l/m 1,1 km/h (1 Bft) SW 225 5 min 0,0 UV-I 10,5 C 27,9 C 0,0 km/h (0 Bft)
06.06.2014 10:30 19,2 C 23,4 C 16,7 C 28,2 C 28,2 C 9,0 C 54 % 69 % 100 % 1019,4 hPa 0,0 l/m 1,4 km/h (1 Bft) O-NO 67 5 min 0,0 UV-I 9,7 C 28,2 C 3,9 km/h (1 Bft)
06.06.2014 10:35 19,5 C 23,4 C 17,1 C 27,3 C 27,3 C 7,8 C 56 % 69 % 100 % 1019,4 hPa 0,0 l/m 2,3 km/h (1 Bft) O-NO 67 5 min 0,0 UV-I 10,5 C 27,3 C 0,0 km/h (0 Bft)
06.06.2014 10:40 19,9 C 23,4 C 17,1 C 28,1 C 28,1 C 8,2 C 54 % 68 % 100 % 1019,4 hPa 0,0 l/m 2,3 km/h (1 Bft) NO 45 5 min 0,0 UV-I 10,3 C 28,1 C 5,1 km/h (1 Bft)
06.06.2014 10:45 20,3 C 23,4 C 17,3 C 27,4 C 27,4 C 7,1 C 51 % 66 % 100 % 1019,4 hPa 0,0 l/m 2,1 km/h (1 Bft) O 90 5 min 0,0 UV-I 9,8 C 27,4 C 4,8 km/h (1 Bft)
06.06.2014 10:50 20,3 C 23,4 C 17,4 C 27,1 C 27,1 C 6,8 C 49 % 64 % 100 % 1019,4 hPa 0,0 l/m 2,6 km/h (1 Bft) O-NO 67 5 min 0,0 UV-I 9,2 C 27,1 C 3,1 km/h (1 Bft)
06.06.2014 10:55 20,1 C 23,4 C 17,4 C 26,9 C 26,9 C 6,8 C 50 % 64 % 100 % 1019,4 hPa 0,0 l/m 2,6 km/h (1 Bft) O-NO 67 5 min 0,0 UV-I 9,3 C 26,9 C 2,3 km/h (1 Bft)
06.06.2014 11:00 19,9 C 23,4 C 17,6 C 26,1 C 26,1 C 6,2 C 49 % 62 % 100 % 1019,2 hPa 0,0 l/m 3,7 km/h (1 Bft) O-NO 67 5 min 0,0 UV-I 8,9 C 26,1 C 2,7 km/h (1 Bft)
06.06.2014 11:05 20,0 C 23,5 C 17,7 C 25,2 C 25,2 C 5,2 C 51 % 63 % 100 % 1019,2 hPa 0,0 l/m 4,0 km/h (1 Bft) O-SO 112 5 min 0,0 UV-I 9,6 C 25,2 C 5,1 km/h (1 Bft)
06.06.2014 11:10 20,2 C 23,5 C 17,9 C 25,0 C 25,0 C 4,8 C 49 % 62 % 100 % 1019,2 hPa 0,0 l/m 3,9 km/h (1 Bft) O-NO 67 5 min 0,0 UV-I 9,1 C 25,0 C 8,7 km/h (2 Bft)
06.06.2014 11:15 20,2 C 23,5 C 17,9 C 25,1 C 25,1 C 4,9 C 49 % 61 % 100 % 1019,2 hPa 0,0 l/m 3,5 km/h (1 Bft) O-NO 67 5 min 0,0 UV-I 9,1 C 25,1 C 3,2 km/h (1 Bft)
06.06.2014 11:20 20,2 C 23,5 C 18,1 C 25,8 C 25,8 C 5,6 C 51 % 62 % 100 % 1019,1 hPa 0,0 l/m 3,1 km/h (1 Bft) O-NO 67 5 min 0,0 UV-I 9,7 C 25,8 C 5,0 km/h (1 Bft)
06.06.2014 11:25 20,3 C 23,5 C 18,3 C 25,6 C 25,6 C 5,3 C 48 % 61 % 100 % 1019,1 hPa 0,0 l/m 3,9 km/h (1 Bft) O-NO 67 5 min 0,0 UV-I 8,9 C 25,6 C 4,5 km/h (1 Bft)
06.06.2014 11:30 20,3 C 23,5 C 18,3 C 25,8 C 25,8 C 5,5 C 50 % 61 % 100 % 1019,1 hPa 0,0 l/m 3,4 km/h (1 Bft) SO 135 5 min 0,0 UV-I 9,5 C 25,8 C 0,0 km/h (0 Bft)
06.06.2014 11:35 20,3 C 23,6 C 18,3 C 26,9 C 26,9 C 6,6 C 50 % 61 % 100 % 1019,1 hPa 0,0 l/m 1,8 km/h (1 Bft) SW 225 5 min 0,0 UV-I 9,5 C 26,9 C 0,0 km/h (0 Bft)
06.06.2014 11:40 20,5 C 23,6 C 18,6 C 27,2 C 27,2 C 6,7 C 52 % 62 % 100 % 1019,2 hPa 0,0 l/m 1,8 km/h (1 Bft) O-NO 67 5 min 0,0 UV-I 10,3 C 27,2 C 4,5 km/h (1 Bft)
06.06.2014 11:45 20,7 C 23,6 C 18,7 C 27,3 C 27,3 C 6,6 C 49 % 61 % 100 % 1019,2 hPa 0,0 l/m 2,6 km/h (1 Bft) O-NO 67 5 min 0,0 UV-I 9,6 C 27,3 C 6,1 km/h (2 Bft)
06.06.2014 11:50 20,5 C 23,6 C 18,8 C 27,1 C 27,1 C 6,6 C 49 % 60 % 100 % 1019,2 hPa 0,0 l/m 2,6 km/h (1 Bft) NO 45 5 min 0,0 UV-I 9,4 C 27,1 C 5,0 km/h (1 Bft)
06.06.2014 11:55 20,7 C 23,6 C 18,8 C 27,3 C 27,3 C 6,6 C 50 % 60 % 100 % 1019,2 hPa 0,0 l/m 1,8 km/h (1 Bft) SW 225 5 min 0,0 UV-I 9,9 C 27,3 C 0,0 km/h (0 Bft)
06.06.2014 12:00 20,9 C 23,7 C 18,7 C 28,4 C 28,4 C 7,5 C 50 % 61 % 100 % 1019,0 hPa 0,0 l/m 1,0 km/h (0 Bft) S-SO 157 5 min 0,0 UV-I 10,1 C 28,4 C 0,0 km/h (0 Bft)
06.06.2014 12:05 21,1 C 23,7 C 18,7 C 28,4 C 28,4 C 7,3 C 48 % 62 % 100 % 1019,0 hPa 0,0 l/m 1,3 km/h (1 Bft) N-NO 22 5 min 0,0 UV-I 9,7 C 28,4 C 1,8 km/h (1 Bft)
06.06.2014 12:10 21,3 C 23,7 C 18,7 C 28,5 C 28,5 C 7,2 C 48 % 62 % 100 % 1019,0 hPa 0,0 l/m 2,1 km/h (1 Bft) S 180 5 min 0,0 UV-I 9,8 C 28,5 C 3,1 km/h (1 Bft)
06.06.2014 12:15 21,5 C 23,6 C 18,8 C 28,5 C 28,5 C 7,0 C 50 % 62 % 100 % 1019,0 hPa 0,0 l/m 1,9 km/h (1 Bft) W-SW 247 5 min 0,0 UV-I 10,6 C 28,5 C 1,8 km/h (1 Bft)
06.06.2014 12:20 21,8 C 23,6 C 18,9 C 28,6 C 28,6 C 6,8 C 49 % 63 % 100 % 1018,7 hPa 0,0 l/m 2,3 km/h (1 Bft) W-SW 247 5 min 0,0 UV-I 10,6 C 28,6 C 5,1 km/h (1 Bft)
06.06.2014 12:25 22,0 C 23,7 C 19,1 C 28,2 C 28,2 C 6,2 C 48 % 63 % 100 % 1018,7 hPa 0,0 l/m 2,6 km/h (1 Bft) W-SW 247 5 min 0,0 UV-I 10,5 C 28,2 C 4,5 km/h (1 Bft)
06.06.2014 12:30 22,3 C 23,7 C 19,1 C 28,2 C 28,2 C 5,9 C 47 % 62 % 100 % 1018,7 hPa 0,0 l/m 2,4 km/h (1 Bft) SW 225 5 min 0,0 UV-I 10,4 C 28,2 C 3,9 km/h (1 Bft)
06.06.2014 12:35 22,4 C 23,7 C 19,1 C 28,4 C 28,4 C 6,0 C 47 % 62 % 100 % 1018,7 hPa 0,0 l/m 2,6 km/h (1 Bft) W 270 5 min 0,0 UV-I 10,5 C 28,4 C 4,8 km/h (1 Bft)
06.06.2014 12:40 22,5 C 23,7 C 19,4 C 28,2 C 28,2 C 5,7 C 47 % 59 % 100 % 1018,6 hPa 0,0 l/m 2,6 km/h (1 Bft) W 270 5 min 0,0 UV-I 10,6 C 28,2 C 3,7 km/h (1 Bft)
06.06.2014 12:45 22,7 C 23,8 C 19,5 C 28,4 C 28,4 C 5,7 C 48 % 62 % 100 % 1018,6 hPa 0,0 l/m 2,4 km/h (1 Bft) W-SW 247 5 min 0,0 UV-I 11,1 C 28,4 C 3,5 km/h (1 Bft)
06.06.2014 12:50 23,5 C 23,8 C 19,7 C 29,0 C 29,0 C 5,5 C 47 % 62 % 100 % 1018,6 hPa 0,0 l/m 1,4 km/h (1 Bft) N-NO 22 5 min 0,0 UV-I 11,5 C 29,0 C 0,0 km/h (0 Bft)
06.06.2014 12:55 23,9 C 23,8 C 19,5 C 29,4 C 29,4 C 5,5 C 47 % 63 % 100 % 1018,6 hPa 0,0 l/m 1,3 km/h (1 Bft) W-SW 247 5 min 0,1 UV-I 11,9 C 29,4 C 0,0 km/h (0 Bft)
06.06.2014 13:00 24,0 C 23,8 C 19,7 C 29,5 C 29,5 C 5,5 C 45 % 60 % 100 % 1018,8 hPa 0,0 l/m 0,8 km/h (0 Bft) SW 225 5 min 0,1 UV-I 11,3 C 29,5 C 3,4 km/h (1 Bft)
06.06.2014 13:05 24,3 C 23,9 C 19,9 C 29,7 C 29,7 C 5,4 C 45 % 62 % 100 % 1018,8 hPa 0,0 l/m 1,0 km/h (0 Bft) S 180 5 min 0,1 UV-I 11,6 C 29,7 C 2,3 km/h (1 Bft)
06.06.2014 13:10 24,5 C 23,9 C 20,0 C 29,7 C 29,7 C 5,2 C 45 % 61 % 100 % 1018,8 hPa 0,0 l/m 1,9 km/h (1 Bft) SW 225 5 min 0,1 UV-I 11,8 C 29,7 C 5,8 km/h (2 Bft)
06.06.2014 13:15 24,7 C 23,9 C 20,1 C 29,3 C 29,3 C 4,6 C 44 % 61 % 100 % 1018,8 hPa 0,0 l/m 2,4 km/h (1 Bft) W-SW 247 5 min 0,1 UV-I 11,6 C 29,3 C 2,3 km/h (1 Bft)
06.06.2014 13:20 24,5 C 24,0 C 20,4 C 29,4 C 29,4 C 4,9 C 44 % 61 % 100 % 1018,3 hPa 0,0 l/m 2,3 km/h (1 Bft) NW 315 5 min 0,1 UV-I 11,4 C 29,4 C 0,0 km/h (0 Bft)
06.06.2014 13:25 24,1 C 24,0 C 20,5 C 29,1 C 29,1 C 5,0 C 43 % 58 % 100 % 1018,3 hPa 0,0 l/m 2,4 km/h (1 Bft) O-NO 67 5 min 0,1 UV-I 10,7 C 29,1 C 3,1 km/h (1 Bft)
06.06.2014 13:30 23,3 C 24,0 C 20,5 C 28,3 C 28,3 C 5,0 C 46 % 58 % 100 % 1018,3 hPa 0,0 l/m 3,1 km/h (1 Bft) S-SW 202 5 min 0,0 UV-I 11,0 C 28,3 C 6,4 km/h (2 Bft)
06.06.2014 13:35 23,3 C 24,0 C 20,8 C 28,3 C 28,3 C 5,0 C 45 % 58 % 100 % 1018,3 hPa 0,0 l/m 2,9 km/h (1 Bft) N 360 5 min 0,0 UV-I 10,7 C 28,3 C 2,4 km/h (1 Bft)
06.06.2014 13:40 23,1 C 24,1 C 21,1 C 28,3 C 28,3 C 5,2 C 47 % 58 % 100 % 1018,4 hPa 0,0 l/m 3,1 km/h (1 Bft) O-NO 67 5 min 0,0 UV-I 11,2 C 28,3 C 4,3 km/h (1 Bft)
06.06.2014 13:45 23,0 C 24,1 C 21,3 C 28,1 C 28,1 C 5,1 C 47 % 57 % 100 % 1018,4 hPa 0,0 l/m 2,9 km/h (1 Bft) O-NO 67 5 min 0,0 UV-I 11,1 C 28,1 C 0,0 km/h (0 Bft)
06.06.2014 13:50 22,9 C 24,0 C 21,6 C 27,5 C 27,5 C 4,6 C 47 % 56 % 100 % 1018,4 hPa 0,0 l/m 4,0 km/h (1 Bft) O 90 5 min 0,0 UV-I 11,0 C 27,5 C 9,5 km/h (2 Bft)
06.06.2014 13:55 22,7 C 24,0 C 21,8 C 27,1 C 27,1 C 4,4 C 47 % 54 % 100 % 1018,4 hPa 0,0 l/m 4,7 km/h (1 Bft) O-SO 112 5 min 0,0 UV-I 10,8 C 27,1 C 3,5 km/h (1 Bft)
06.06.2014 14:00 23,0 C 24,1 C 22,5 C 27,7 C 27,7 C 4,7 C 48 % 54 % 100 % 1018,2 hPa 0,0 l/m 3,7 km/h (1 Bft) N-NW 337 5 min 0,0 UV-I 11,4 C 27,7 C 7,6 km/h (2 Bft)
06.06.2014 14:05 23,1 C 24,1 C 22,9 C 28,2 C 28,2 C 5,1 C 47 % 51 % 100 % 1018,2 hPa 0,0 l/m 2,6 km/h (1 Bft) N 360 5 min 0,0 UV-I 11,2 C 28,2 C 0,0 km/h (0 Bft)
06.06.2014 14:10 23,2 C 24,1 C 22,6 C 28,9 C 28,9 C 5,7 C 46 % 52 % 100 % 1018,2 hPa 0,0 l/m 2,6 km/h (1 Bft) O-NO 67 5 min 0,0 UV-I 10,9 C 28,9 C 2,9 km/h (1 Bft)
06.06.2014 14:15 23,1 C 24,1 C 22,3 C 28,8 C 28,8 C 5,7 C 48 % 54 % 100 % 1018,2 hPa 0,0 l/m 2,3 km/h (1 Bft) SO 135 5 min 0,0 UV-I 11,5 C 28,8 C 1,8 km/h (1 Bft)
06.06.2014 14:20 23,2 C 24,2 C 22,2 C 28,8 C 28,8 C 5,6 C 49 % 56 % 100 % 1018,0 hPa 0,0 l/m 2,9 km/h (1 Bft) O 90 5 min 0,0 UV-I 11,9 C 28,8 C 4,8 km/h (1 Bft)
06.06.2014 14:25 23,3 C 24,2 C 22,1 C 28,9 C 28,9 C 5,6 C 48 % 54 % 100 % 1018,0 hPa 0,0 l/m 2,7 km/h (1 Bft) O-SO 112 5 min 0,0 UV-I 11,7 C 28,9 C 4,5 km/h (1 Bft)
06.06.2014 14:30 23,2 C 24,2 C 22,1 C 28,6 C 28,6 C 5,4 C 47 % 55 % 100 % 1018,0 hPa 0,0 l/m 3,1 km/h (1 Bft) NO 45 5 min 0,0 UV-I 11,3 C 28,6 C 2,3 km/h (1 Bft)
06.06.2014 14:35 23,3 C 24,2 C 22,2 C 28,9 C 28,9 C 5,6 C 48 % 55 % 100 % 1018,0 hPa 0,0 l/m 3,2 km/h (1 Bft) O 90 5 min 0,0 UV-I 11,7 C 28,9 C 6,3 km/h (2 Bft)
06.06.2014 14:40 23,3 C 24,3 C 22,3 C 28,8 C 28,8 C 5,5 C 49 % 56 % 100 % 1017,6 hPa 0,0 l/m 2,7 km/h (1 Bft) O-NO 67 5 min 0,0 UV-I 12,0 C 28,8 C 5,8 km/h (2 Bft)
06.06.2014 14:45 23,0 C 24,3 C 22,2 C 28,4 C 28,4 C 5,4 C 47 % 53 % 100 % 1017,6 hPa 0,0 l/m 4,0 km/h (1 Bft) O 90 5 min 0,0 UV-I 11,1 C 28,4 C 4,0 km/h (1 Bft)
06.06.2014 14:50 23,0 C 24,3 C 22,1 C 28,1 C 28,1 C 5,1 C 47 % 53 % 100 % 1017,6 hPa 0,0 l/m 4,2 km/h (1 Bft) N-NW 337 5 min 0,0 UV-I 11,1 C 28,1 C 2,9 km/h (1 Bft)
06.06.2014 14:55 23,2 C 24,3 C 22,3 C 28,2 C 28,2 C 5,0 C 48 % 54 % 100 % 1017,6 hPa 0,0 l/m 4,3 km/h (1 Bft) O-NO 67 5 min 0,0 UV-I 11,6 C 28,2 C 4,5 km/h (1 Bft)
06.06.2014 15:00 23,2 C 24,4 C 22,1 C 27,9 C 27,9 C 4,7 C 47 % 53 % 100 % 1017,5 hPa 0,0 l/m 4,7 km/h (1 Bft) O-SO 112 5 min 0,0 UV-I 11,3 C 27,9 C 3,1 km/h (1 Bft)
06.06.2014 15:05 23,1 C 24,4 C 22,1 C 27,7 C 27,7 C 4,6 C 47 % 54 % 100 % 1017,5 hPa 0,0 l/m 4,0 km/h (1 Bft) N 360 5 min 0,0 UV-I 11,2 C 27,7 C 1,6 km/h (1 Bft)
06.06.2014 15:10 23,2 C 24,4 C 22,0 C 28,0 C 28,0 C 4,8 C 46 % 54 % 100 % 1017,5 hPa 0,0 l/m 3,1 km/h (1 Bft) NW 315 5 min 0,0 UV-I 10,9 C 28,0 C 1,9 km/h (1 Bft)
06.06.2014 15:15 23,3 C 24,4 C 21,9 C 27,3 C 27,3 C 4,0 C 47 % 55 % 100 % 1017,5 hPa 0,0 l/m 2,6 km/h (1 Bft) NO 45 5 min 0,0 UV-I 11,3 C 27,3 C 0,0 km/h (0 Bft)
06.06.2014 15:20 23,7 C 24,4 C 21,9 C 28,8 C 28,8 C 5,1 C 46 % 57 % 100 % 1017,5 hPa 0,0 l/m 1,3 km/h (1 Bft) W-NW 292 5 min 0,0 UV-I 11,4 C 28,8 C 1,8 km/h (1 Bft)
06.06.2014 15:25 24,1 C 24,4 C 22,0 C 29,5 C 29,5 C 5,4 C 46 % 56 % 100 % 1017,5 hPa 0,0 l/m 1,0 km/h (0 Bft) SO 135 5 min 0,0 UV-I 11,7 C 29,5 C 1,6 km/h (1 Bft)
06.06.2014 15:30 24,3 C 24,5 C 22,2 C 30,3 C 30,3 C 6,0 C 47 % 55 % 100 % 1017,5 hPa 0,0 l/m 1,1 km/h (1 Bft) NO 45 5 min 0,0 UV-I 12,3 C 30,3 C 2,3 km/h (1 Bft)
06.06.2014 15:35 24,4 C 24,5 C 22,3 C 30,7 C 30,7 C 6,3 C 46 % 54 % 100 % 1017,5 hPa 0,0 l/m 1,6 km/h (1 Bft) O-NO 67 5 min 0,0 UV-I 12,0 C 30,7 C 4,5 km/h (1 Bft)
06.06.2014 15:40 24,3 C 24,5 C 22,4 C 30,8 C 30,8 C 6,5 C 45 % 53 % 100 % 1017,3 hPa 0,0 l/m 1,3 km/h (1 Bft) O-SO 112 5 min 0,0 UV-I 11,6 C 30,8 C 0,0 km/h (0 Bft)
06.06.2014 15:45 24,5 C 24,5 C 22,5 C 31,5 C 31,5 C 7,0 C 46 % 54 % 100 % 1017,3 hPa 0,0 l/m 0,8 km/h (0 Bft) NO 45 5 min 0,0 UV-I 12,1 C 31,5 C 0,0 km/h (0 Bft)
06.06.2014 15:50 24,3 C 24,6 C 22,7 C 30,7 C 30,7 C 6,4 C 45 % 54 % 100 % 1017,3 hPa 0,0 l/m 2,6 km/h (1 Bft) N-NO 22 5 min 0,0 UV-I 11,6 C 30,7 C 7,2 km/h (2 Bft)
06.06.2014 15:55 24,2 C 24,6 C 22,7 C 30,2 C 30,2 C 6,0 C 46 % 54 % 100 % 1017,3 hPa 0,0 l/m 3,2 km/h (1 Bft) O 90 5 min 0,0 UV-I 11,8 C 30,2 C 7,1 km/h (2 Bft)
06.06.2014 16:00 24,3 C 24,6 C 22,6 C 30,0 C 30,0 C 5,7 C 46 % 55 % 100 % 1017,2 hPa 0,0 l/m 2,6 km/h (1 Bft) O-NO 67 5 min 0,0 UV-I 11,9 C 30,0 C 4,5 km/h (1 Bft)
06.06.2014 16:05 24,2 C 24,6 C 22,7 C 30,3 C 30,3 C 6,1 C 46 % 55 % 100 % 1017,2 hPa 0,0 l/m 2,4 km/h (1 Bft) O-SO 112 5 min 0,0 UV-I 11,8 C 30,3 C 4,0 km/h (1 Bft)
06.06.2014 16:10 24,5 C 24,7 C 23,1 C 30,6 C 30,6 C 6,1 C 48 % 56 % 100 % 1017,2 hPa 0,0 l/m 2,3 km/h (1 Bft) O-NO 67 5 min 0,0 UV-I 12,8 C 30,6 C 5,5 km/h (1 Bft)
06.06.2014 16:15 24,4 C 24,7 C 23,0 C 30,6 C 30,6 C 6,2 C 47 % 55 % 100 % 1017,2 hPa 0,0 l/m 2,7 km/h (1 Bft) O-NO 67 5 min 0,0 UV-I 12,3 C 30,6 C 7,6 km/h (2 Bft)
06.06.2014 16:20 24,2 C 24,7 C 22,8 C 30,0 C 30,0 C 5,8 C 46 % 55 % 100 % 1017,1 hPa 0,0 l/m 3,7 km/h (1 Bft) O-NO 67 5 min 0,0 UV-I 11,8 C 30,0 C 6,0 km/h (2 Bft)
06.06.2014 16:25 24,2 C 24,7 C 22,9 C 29,8 C 29,8 C 5,6 C 46 % 54 % 100 % 1017,1 hPa 0,0 l/m 3,9 km/h (1 Bft) SO 135 5 min 0,0 UV-I 11,8 C 29,8 C 3,5 km/h (1 Bft)
06.06.2014 16:30 24,2 C 24,8 C 23,3 C 30,2 C 30,2 C 6,0 C 45 % 51 % 100 % 1017,1 hPa 0,0 l/m 2,4 km/h (1 Bft) SW 225 5 min 0,0 UV-I 11,5 C 30,2 C 3,7 km/h (1 Bft)
06.06.2014 16:35 24,4 C 24,8 C 23,3 C 30,7 C 30,7 C 6,3 C 44 % 50 % 100 % 1017,1 hPa 0,0 l/m 2,3 km/h (1 Bft) N-NW 337 5 min 0,0 UV-I 11,3 C 30,7 C 5,1 km/h (1 Bft)
06.06.2014 16:40 24,7 C 24,8 C 23,5 C 30,5 C 30,5 C 5,8 C 45 % 50 % 100 % 1016,7 hPa 0,0 l/m 3,4 km/h (1 Bft) O-NO 67 5 min 0,0 UV-I 12,0 C 30,5 C 3,4 km/h (1 Bft)
06.06.2014 16:45 24,4 C 24,8 C 23,4 C 30,2 C 30,2 C 5,8 C 45 % 51 % 100 % 1016,7 hPa 0,0 l/m 4,2 km/h (1 Bft) O 90 5 min 0,0 UV-I 11,7 C 30,2 C 6,0 km/h (2 Bft)
06.06.2014 16:50 24,4 C 25,0 C 23,2 C 29,7 C 29,7 C 5,3 C 46 % 53 % 100 % 1016,7 hPa 0,0 l/m 4,0 km/h (1 Bft) O-NO 67 5 min 0,0 UV-I 12,0 C 29,7 C 3,5 km/h (1 Bft)
06.06.2014 16:55 24,3 C 25,0 C 23,1 C 29,6 C 29,6 C 5,3 C 45 % 52 % 100 % 1016,7 hPa 0,0 l/m 4,0 km/h (1 Bft) W-NW 292 5 min 0,0 UV-I 11,6 C 29,6 C 3,9 km/h (1 Bft)
06.06.2014 17:00 24,3 C 25,0 C 23,1 C 29,7 C 29,7 C 5,4 C 45 % 52 % 100 % 1017,0 hPa 0,0 l/m 3,2 km/h (1 Bft) O-SO 112 5 min 0,0 UV-I 11,6 C 29,7 C 2,9 km/h (1 Bft)
06.06.2014 17:05 24,3 C 25,0 C 23,0 C 29,8 C 29,8 C 5,5 C 44 % 51 % 100 % 1017,0 hPa 0,0 l/m 2,9 km/h (1 Bft) O-SO 112 5 min 0,0 UV-I 11,3 C 29,8 C 2,7 km/h (1 Bft)
06.06.2014 17:10 24,2 C 25,0 C 22,9 C 29,9 C 29,9 C 5,7 C 45 % 51 % 100 % 1017,0 hPa 0,0 l/m 2,6 km/h (1 Bft) O 90 5 min 0,0 UV-I 11,5 C 29,9 C 5,0 km/h (1 Bft)
06.06.2014 17:15 24,1 C 25,0 C 23,0 C 30,0 C 30,0 C 5,9 C 44 % 51 % 100 % 1017,0 hPa 0,0 l/m 2,4 km/h (1 Bft) O-SO 112 5 min 0,0 UV-I 11,1 C 30,0 C 5,8 km/h (2 Bft)
06.06.2014 17:20 24,1 C 25,1 C 23,1 C 29,6 C 29,6 C 5,5 C 44 % 50 % 100 % 1016,8 hPa 0,0 l/m 3,4 km/h (1 Bft) O 90 5 min 0,0 UV-I 11,1 C 29,6 C 3,1 km/h (1 Bft)
06.06.2014 17:25 24,1 C 25,1 C 22,9 C 29,7 C 29,7 C 5,6 C 45 % 51 % 100 % 1016,8 hPa 0,0 l/m 3,4 km/h (1 Bft) O 90 5 min 0,0 UV-I 11,4 C 29,7 C 7,7 km/h (2 Bft)
06.06.2014 17:30 24,3 C 25,1 C 22,9 C 29,3 C 29,3 C 5,0 C 43 % 50 % 100 % 1016,8 hPa 0,0 l/m 3,7 km/h (1 Bft) O 90 5 min 0,0 UV-I 10,9 C 29,3 C 3,7 km/h (1 Bft)
06.06.2014 17:35 24,2 C 25,1 C 22,9 C 29,2 C 29,2 C 5,0 C 44 % 52 % 100 % 1016,8 hPa 0,0 l/m 4,2 km/h (1 Bft) NO 45 5 min 0,0 UV-I 11,2 C 29,2 C 5,5 km/h (1 Bft)
06.06.2014 17:40 24,3 C 25,1 C 23,0 C 29,3 C 29,3 C 5,0 C 44 % 50 % 100 % 1016,6 hPa 0,0 l/m 3,9 km/h (1 Bft) O 90 5 min 0,0 UV-I 11,3 C 29,3 C 7,1 km/h (2 Bft)
06.06.2014 17:45 24,3 C 25,2 C 23,1 C 28,8 C 28,8 C 4,5 C 45 % 51 % 100 % 1016,6 hPa 0,0 l/m 4,8 km/h (1 Bft) O-NO 67 5 min 0,0 UV-I 11,6 C 28,8 C 5,1 km/h (1 Bft)
06.06.2014 17:50 24,2 C 25,2 C 23,0 C 28,4 C 28,4 C 4,2 C 45 % 52 % 100 % 1016,6 hPa 0,0 l/m 5,8 km/h (2 Bft) O-NO 67 5 min 0,0 UV-I 11,5 C 28,4 C 10,6 km/h (2 Bft)
06.06.2014 17:55 24,1 C 25,2 C 22,9 C 28,0 C 28,0 C 3,9 C 46 % 53 % 100 % 1016,6 hPa 0,0 l/m 5,6 km/h (1 Bft) S-SO 157 5 min 0,0 UV-I 11,7 C 28,0 C 7,4 km/h (2 Bft)
06.06.2014 18:00 24,0 C 25,2 C 22,9 C 27,9 C 27,9 C 3,9 C 46 % 53 % 100 % 1016,6 hPa 0,0 l/m 5,6 km/h (1 Bft) O-NO 67 5 min 0,0 UV-I 11,7 C 27,9 C 6,3 km/h (2 Bft)
06.06.2014 18:05 24,1 C 25,2 C 22,9 C 27,9 C 27,9 C 3,8 C 45 % 51 % 100 % 1016,6 hPa 0,0 l/m 5,0 km/h (1 Bft) O 90 5 min 0,0 UV-I 11,4 C 27,9 C 4,8 km/h (1 Bft)
06.06.2014 18:10 23,9 C 25,2 C 22,8 C 28,2 C 28,2 C 4,3 C 46 % 52 % 100 % 1016,6 hPa 0,0 l/m 3,9 km/h (1 Bft) O 90 5 min 0,0 UV-I 11,6 C 28,2 C 4,8 km/h (1 Bft)
06.06.2014 18:15 24,0 C 25,2 C 22,9 C 28,4 C 28,4 C 4,4 C 48 % 53 % 100 % 1016,6 hPa 0,0 l/m 3,1 km/h (1 Bft) O-NO 67 5 min 0,0 UV-I 12,3 C 28,4 C 2,9 km/h (1 Bft)
06.06.2014 18:20 24,0 C 25,3 C 22,9 C 28,6 C 28,6 C 4,6 C 45 % 52 % 100 % 1016,3 hPa 0,0 l/m 3,5 km/h (1 Bft) O-NO 67 5 min 0,0 UV-I 11,3 C 28,6 C 4,0 km/h (1 Bft)
06.06.2014 18:25 24,0 C 25,3 C 22,8 C 28,5 C 28,5 C 4,5 C 47 % 52 % 100 % 1016,3 hPa 0,0 l/m 3,9 km/h (1 Bft) O-NO 67 5 min 0,0 UV-I 12,0 C 28,5 C 5,3 km/h (1 Bft)
06.06.2014 18:30 24,0 C 25,3 C 22,9 C 28,0 C 28,0 C 4,0 C 45 % 51 % 100 % 1016,3 hPa 0,0 l/m 4,7 km/h (1 Bft) O-SO 112 5 min 0,0 UV-I 11,3 C 28,0 C 5,1 km/h (1 Bft)
06.06.2014 18:35 23,9 C 25,3 C 22,9 C 27,9 C 27,9 C 4,0 C 46 % 51 % 100 % 1016,3 hPa 0,0 l/m 5,1 km/h (1 Bft) O-NO 67 5 min 0,0 UV-I 11,6 C 27,9 C 5,3 km/h (1 Bft)
06.06.2014 18:40 23,9 C 25,3 C 22,9 C 27,6 C 27,6 C 3,7 C 46 % 51 % 97 % 1016,3 hPa 0,0 l/m 5,1 km/h (1 Bft) O 90 5 min 0,0 UV-I 11,6 C 27,6 C 5,3 km/h (1 Bft)
06.06.2014 18:45 23,9 C 25,3 C 22,8 C 27,5 C 27,5 C 3,6 C 47 % 52 % 95 % 1016,3 hPa 0,0 l/m 5,1 km/h (1 Bft) O-NO 67 5 min 0,0 UV-I 11,9 C 27,5 C 5,0 km/h (1 Bft)
06.06.2014 18:50 23,9 C 25,3 C 22,9 C 27,3 C 27,3 C 3,4 C 47 % 52 % 89 % 1016,3 hPa 0,0 l/m 5,0 km/h (1 Bft) NO 45 5 min 0,0 UV-I 11,9 C 27,3 C 5,1 km/h (1 Bft)
06.06.2014 18:55 23,9 C 25,4 C 22,9 C 27,2 C 27,2 C 3,3 C 48 % 53 % 87 % 1016,3 hPa 0,0 l/m 5,6 km/h (1 Bft) O-NO 67 5 min 0,0 UV-I 12,2 C 27,2 C 8,2 km/h (2 Bft)
06.06.2014 19:00 23,6 C 25,4 C 22,8 C 27,0 C 27,0 C 3,4 C 49 % 53 % 89 % 1016,1 hPa 0,0 l/m 5,8 km/h (2 Bft) O-SO 112 5 min 0,0 UV-I 12,2 C 27,0 C 8,2 km/h (2 Bft)
06.06.2014 19:05 23,7 C 25,4 C 22,9 C 26,9 C 26,9 C 3,2 C 50 % 54 % 84 % 1016,1 hPa 0,0 l/m 5,3 km/h (1 Bft) O-NO 67 5 min 0,0 UV-I 12,6 C 26,9 C 4,8 km/h (1 Bft)
06.06.2014 19:10 23,6 C 25,4 C 22,7 C 26,8 C 26,8 C 3,2 C 50 % 55 % 84 % 1016,1 hPa 0,0 l/m 5,1 km/h (1 Bft) O-NO 67 5 min 0,0 UV-I 12,6 C 26,8 C 4,8 km/h (1 Bft)
06.06.2014 19:15 23,5 C 25,4 C 22,7 C 26,7 C 26,7 C 3,2 C 50 % 55 % 84 % 1016,1 hPa 0,0 l/m 4,5 km/h (1 Bft) O 90 5 min 0,0 UV-I 12,5 C 26,7 C 6,6 km/h (2 Bft)
06.06.2014 19:20 23,5 C 25,4 C 22,7 C 26,7 C 26,7 C 3,2 C 51 % 56 % 84 % 1016,3 hPa 0,0 l/m 4,2 km/h (1 Bft) O 90 5 min 0,0 UV-I 12,8 C 26,7 C 4,0 km/h (1 Bft)
06.06.2014 19:25 23,4 C 25,4 C 22,7 C 26,6 C 26,6 C 3,2 C 51 % 56 % 84 % 1016,3 hPa 0,0 l/m 4,5 km/h (1 Bft) O 90 5 min 0,0 UV-I 12,7 C 26,6 C 5,6 km/h (1 Bft)
06.06.2014 19:30 23,3 C 25,4 C 22,5 C 26,4 C 26,4 C 3,1 C 51 % 56 % 82 % 1016,3 hPa 0,0 l/m 4,7 km/h (1 Bft) O-NO 67 5 min 0,0 UV-I 12,6 C 26,4 C 6,1 km/h (2 Bft)
06.06.2014 19:35 23,2 C 25,4 C 22,5 C 26,2 C 26,2 C 3,0 C 51 % 56 % 79 % 1016,3 hPa 0,0 l/m 4,8 km/h (1 Bft) O-NO 67 5 min 0,0 UV-I 12,5 C 26,2 C 6,6 km/h (2 Bft)
06.06.2014 19:40 23,1 C 25,4 C 22,5 C 26,0 C 26,0 C 2,9 C 52 % 56 % 76 % 1016,2 hPa 0,0 l/m 4,8 km/h (1 Bft) O-NO 67 5 min 0,0 UV-I 12,7 C 26,0 C 4,8 km/h (1 Bft)
06.06.2014 19:45 23,0 C 25,4 C 22,4 C 25,8 C 25,8 C 2,8 C 52 % 57 % 74 % 1016,2 hPa 0,0 l/m 4,8 km/h (1 Bft) O 90 5 min 0,0 UV-I 12,6 C 25,8 C 4,2 km/h (1 Bft)
06.06.2014 19:50 23,1 C 25,5 C 22,3 C 25,7 C 25,7 C 2,6 C 53 % 58 % 68 % 1016,2 hPa 0,0 l/m 4,3 km/h (1 Bft) O-NO 67 5 min 0,0 UV-I 13,0 C 25,7 C 4,2 km/h (1 Bft)
06.06.2014 19:55 22,9 C 25,5 C 22,3 C 25,6 C 25,6 C 2,7 C 54 % 58 % 71 % 1016,2 hPa 0,0 l/m 3,7 km/h (1 Bft) O-NO 67 5 min 0,0 UV-I 13,1 C 25,6 C 3,4 km/h (1 Bft)
06.06.2014 20:00 22,8 C 25,5 C 22,0 C 25,4 C 25,4 C 2,6 C 54 % 59 % 68 % 1015,9 hPa 0,0 l/m 4,2 km/h (1 Bft) O-SO 112 5 min 0,0 UV-I 13,0 C 25,4 C 5,5 km/h (1 Bft)
06.06.2014 20:05 22,7 C 25,5 C 22,1 C 24,9 C 24,9 C 2,2 C 55 % 59 % 58 % 1015,9 hPa 0,0 l/m 4,3 km/h (1 Bft) O 90 5 min 0,0 UV-I 13,2 C 24,9 C 4,5 km/h (1 Bft)
06.06.2014 20:10 22,6 C 25,5 C 21,8 C 23,6 C 23,6 C 1,0 C 55 % 60 % 26 % 1015,9 hPa 0,0 l/m 4,7 km/h (1 Bft) O 90 0 min 0,0 UV-I 13,1 C 23,6 C 5,0 km/h (1 Bft)
06.06.2014 20:15 22,5 C 25,5 C 21,8 C 23,0 C 23,0 C 0,5 C 55 % 59 % 13 % 1015,9 hPa 0,0 l/m 4,7 km/h (1 Bft) O-NO 67 0 min 0,0 UV-I 13,0 C 23,0 C 3,4 km/h (1 Bft)
06.06.2014 20:20 22,5 C 25,5 C 21,7 C 22,5 C 22,4 C 0,0 C 55 % 60 % 0 % 1015,9 hPa 0,0 l/m 4,2 km/h (1 Bft) O-NO 67 0 min 0,0 UV-I 13,0 C 22,4 C 3,9 km/h (1 Bft)
06.06.2014 20:25 22,2 C 25,5 C 21,5 C 22,2 C 22,1 C 0,0 C 56 % 61 % 0 % 1015,9 hPa 0,0 l/m 3,5 km/h (1 Bft) NO 45 0 min 0,0 UV-I 13,0 C 22,1 C 3,5 km/h (1 Bft)
06.06.2014 20:30 22,0 C 25,5 C 21,1 C 21,9 C 21,7 C 0,0 C 57 % 62 % 0 % 1015,9 hPa 0,0 l/m 2,7 km/h (1 Bft) O-NO 67 0 min 0,0 UV-I 13,1 C 21,7 C 3,4 km/h (1 Bft)
06.06.2014 20:35 21,8 C 25,6 C 20,9 C 21,7 C 21,4 C 0,0 C 58 % 63 % 0 % 1015,9 hPa 0,0 l/m 3,1 km/h (1 Bft) SW 225 0 min 0,0 UV-I 13,2 C 21,4 C 4,3 km/h (1 Bft)
06.06.2014 20:40 21,6 C 25,6 C 20,6 C 21,4 C 21,1 C 0,0 C 58 % 64 % 0 % 1016,2 hPa 0,0 l/m 3,5 km/h (1 Bft) O-NO 67 0 min 0,0 UV-I 13,0 C 21,1 C 4,2 km/h (1 Bft)
06.06.2014 20:45 21,5 C 25,6 C 20,4 C 21,3 C 20,9 C 0,0 C 59 % 64 % 0 % 1016,2 hPa 0,0 l/m 3,7 km/h (1 Bft) O-NO 67 0 min 0,0 UV-I 13,1 C 20,9 C 4,5 km/h (1 Bft)
06.06.2014 20:50 21,3 C 25,6 C 20,1 C 21,1 C 20,7 C 0,0 C 59 % 65 % 0 % 1016,2 hPa 0,0 l/m 3,9 km/h (1 Bft) O-NO 67 0 min 0,0 UV-I 13,0 C 20,7 C 5,5 km/h (1 Bft)
06.06.2014 20:55 21,2 C 25,6 C 20,0 C 21,0 C 20,5 C 0,0 C 59 % 65 % 0 % 1016,2 hPa 0,0 l/m 4,0 km/h (1 Bft) O-NO 67 0 min 0,0 UV-I 12,9 C 20,5 C 4,8 km/h (1 Bft)
06.06.2014 21:00 21,0 C 25,6 C 19,7 C 20,7 C 20,2 C 0,0 C 59 % 66 % 0 % 1015,9 hPa 0,0 l/m 4,0 km/h (1 Bft) O-SO 112 0 min 0,0 UV-I 12,7 C 20,2 C 2,7 km/h (1 Bft)
06.06.2014 21:05 20,8 C 25,6 C 19,6 C 20,5 C 20,0 C 0,0 C 59 % 66 % 0 % 1015,9 hPa 0,0 l/m 3,9 km/h (1 Bft) O-NO 67 0 min 0,0 UV-I 12,5 C 20,0 C 3,7 km/h (1 Bft)
06.06.2014 21:10 20,4 C 25,6 C 19,3 C 20,1 C 19,6 C 0,0 C 59 % 66 % 0 % 1015,9 hPa 0,0 l/m 3,2 km/h (1 Bft) O-SO 112 0 min 0,0 UV-I 12,1 C 19,6 C 2,6 km/h (1 Bft)
06.06.2014 21:15 20,2 C 25,6 C 19,1 C 19,9 C 19,3 C 0,0 C 59 % 66 % 0 % 1015,9 hPa 0,0 l/m 2,3 km/h (1 Bft) O-NO 67 0 min 0,0 UV-I 11,9 C 19,3 C 0,0 km/h (0 Bft)
06.06.2014 21:20 20,0 C 25,6 C 18,8 C 19,6 C 18,7 C 0,0 C 60 % 67 % 0 % 1016,2 hPa 0,0 l/m 0,6 km/h (0 Bft) O-NO 67 0 min 0,0 UV-I 12,0 C 18,7 C 2,3 km/h (1 Bft)
06.06.2014 21:25 19,8 C 25,6 C 18,6 C 19,4 C 18,6 C 0,0 C 59 % 67 % 0 % 1016,2 hPa 0,0 l/m 1,1 km/h (1 Bft) O-SO 112 0 min 0,0 UV-I 11,6 C 18,6 C 3,5 km/h (1 Bft)
06.06.2014 21:30 19,7 C 25,6 C 18,5 C 19,3 C 18,5 C 0,0 C 58 % 67 % 0 % 1016,2 hPa 0,0 l/m 1,8 km/h (1 Bft) SO 135 0 min 0,0 UV-I 11,2 C 18,5 C 0,0 km/h (0 Bft)
06.06.2014 21:35 19,6 C 25,6 C 18,4 C 19,2 C 18,4 C 0,0 C 57 % 67 % 0 % 1016,2 hPa 0,0 l/m 1,4 km/h (1 Bft) SO 135 0 min 0,0 UV-I 10,8 C 18,4 C 2,1 km/h (1 Bft)
06.06.2014 21:40 19,5 C 25,6 C 18,4 C 19,1 C 18,4 C 0,0 C 58 % 66 % 0 % 1016,3 hPa 0,0 l/m 0,6 km/h (0 Bft) N 360 0 min 0,0 UV-I 11,0 C 18,4 C 0,0 km/h (0 Bft)
06.06.2014 21:45 19,3 C 25,6 C 18,3 C 18,9 C 18,2 C 0,0 C 58 % 66 % 0 % 1016,3 hPa 0,0 l/m 0,5 km/h (0 Bft) N 360 0 min 0,0 UV-I 10,8 C 18,2 C 0,0 km/h (0 Bft)
06.06.2014 21:50 19,3 C 25,6 C 18,0 C 18,9 C 18,0 C 0,0 C 58 % 66 % 0 % 1016,3 hPa 0,0 l/m 0,3 km/h (0 Bft) O-SO 112 0 min 0,0 UV-I 10,8 C 18,0 C 0,0 km/h (0 Bft)
06.06.2014 21:55 19,1 C 25,7 C 17,9 C 18,7 C 17,8 C 0,0 C 59 % 66 % 0 % 1016,3 hPa 0,0 l/m 0,3 km/h (0 Bft) O-NO 67 0 min 0,0 UV-I 10,9 C 17,8 C 0,0 km/h (0 Bft)
06.06.2014 22:00 18,8 C 25,7 C 17,7 C 18,3 C 17,4 C 0,0 C 59 % 67 % 0 % 1016,4 hPa 0,0 l/m 0,2 km/h (0 Bft) O-NO 67 0 min 0,0 UV-I 10,6 C 17,4 C 0,0 km/h (0 Bft)
06.06.2014 22:05 18,7 C 25,7 C 17,6 C 18,2 C 17,2 C 0,0 C 60 % 67 % 0 % 1016,4 hPa 0,0 l/m 0,2 km/h (0 Bft) NW 315 0 min 0,0 UV-I 10,8 C 17,2 C 0,0 km/h (0 Bft)
06.06.2014 22:10 18,5 C 25,7 C 17,4 C 18,0 C 16,9 C 0,0 C 60 % 68 % 0 % 1016,4 hPa 0,0 l/m 0,0 km/h (0 Bft) W-NW 292 0 min 0,0 UV-I 10,6 C 16,9 C 0,0 km/h (0 Bft)
06.06.2014 22:15 18,4 C 25,7 C 17,3 C 17,9 C 16,8 C 0,0 C 60 % 68 % 0 % 1016,4 hPa 0,0 l/m 0,0 km/h (0 Bft) NW 315 0 min 0,0 UV-I 10,5 C 16,8 C 0,0 km/h (0 Bft)
06.06.2014 22:20 18,3 C 25,6 C 17,2 C 17,7 C 16,6 C 0,0 C 61 % 69 % 0 % 1016,4 hPa 0,0 l/m 0,0 km/h (0 Bft) N-NO 22 0 min 0,0 UV-I 10,6 C 16,6 C 0,0 km/h (0 Bft)
06.06.2014 22:25 18,1 C 25,6 C 17,1 C 17,6 C 16,5 C 0,0 C 61 % 69 % 0 % 1016,4 hPa 0,0 l/m 0,0 km/h (0 Bft) NW 315 0 min 0,0 UV-I 10,5 C 16,5 C 0,0 km/h (0 Bft)
06.06.2014 22:30 17,9 C 25,6 C 17,0 C 17,4 C 16,3 C 0,0 C 63 % 69 % 0 % 1016,4 hPa 0,0 l/m 0,2 km/h (0 Bft) NO 45 0 min 0,0 UV-I 10,8 C 16,3 C 0,0 km/h (0 Bft)
06.06.2014 22:35 17,8 C 25,6 C 16,9 C 17,3 C 16,2 C 0,0 C 63 % 70 % 0 % 1016,4 hPa 0,0 l/m 0,0 km/h (0 Bft) NO 45 0 min 0,0 UV-I 10,7 C 16,2 C 0,0 km/h (0 Bft)
06.06.2014 22:40 17,5 C 25,6 C 16,5 C 17,0 C 15,9 C 0,0 C 64 % 71 % 0 % 1016,6 hPa 0,0 l/m 0,0 km/h (0 Bft) NO 45 0 min 0,0 UV-I 10,6 C 15,9 C 0,0 km/h (0 Bft)
06.06.2014 22:45 17,4 C 25,6 C 16,5 C 16,9 C 15,8 C 0,0 C 65 % 71 % 0 % 1016,6 hPa 0,0 l/m 0,0 km/h (0 Bft) NO 45 0 min 0,0 UV-I 10,8 C 15,8 C 0,0 km/h (0 Bft)
06.06.2014 22:50 17,1 C 25,6 C 16,3 C 16,6 C 15,5 C 0,0 C 65 % 72 % 0 % 1016,6 hPa 0,0 l/m 0,0 km/h (0 Bft) NO 45 0 min 0,0 UV-I 10,5 C 15,5 C 0,0 km/h (0 Bft)
06.06.2014 22:55 17,0 C 25,6 C 16,1 C 16,5 C 15,4 C 0,0 C 66 % 72 % 0 % 1016,6 hPa 0,0 l/m 0,0 km/h (0 Bft) NO 45 0 min 0,0 UV-I 10,6 C 15,4 C 0,0 km/h (0 Bft)
06.06.2014 23:00 16,7 C 25,6 C 16,0 C 16,1 C 15,0 C 0,0 C 67 % 73 % 0 % 1016,8 hPa 0,0 l/m 0,0 km/h (0 Bft) W-SW 247 0 min 0,0 UV-I 10,5 C 15,0 C 1,8 km/h (1 Bft)
06.06.2014 23:05 16,7 C 25,6 C 15,9 C 16,1 C 14,9 C 0,0 C 68 % 74 % 0 % 1016,8 hPa 0,0 l/m 0,2 km/h (0 Bft) W-SW 247 0 min 0,0 UV-I 10,8 C 14,9 C 0,0 km/h (0 Bft)
06.06.2014 23:10 16,3 C 25,6 C 15,8 C 15,7 C 14,6 C 0,0 C 69 % 74 % 0 % 1016,8 hPa 0,0 l/m 0,2 km/h (0 Bft) W-NW 292 0 min 0,0 UV-I 10,6 C 14,6 C 0,0 km/h (0 Bft)
06.06.2014 23:15 16,3 C 25,6 C 15,7 C 15,7 C 14,5 C 0,0 C 70 % 75 % 0 % 1016,8 hPa 0,0 l/m 0,0 km/h (0 Bft) N-NW 337 0 min 0,0 UV-I 10,8 C 14,5 C 0,0 km/h (0 Bft)
06.06.2014 23:20 16,0 C 25,6 C 15,6 C 15,4 C 14,3 C 0,0 C 71 % 76 % 0 % 1016,4 hPa 0,0 l/m 0,0 km/h (0 Bft) NW 315 0 min 0,0 UV-I 10,7 C 14,3 C 0,0 km/h (0 Bft)
06.06.2014 23:25 15,9 C 25,6 C 15,5 C 15,3 C 14,2 C 0,0 C 72 % 76 % 0 % 1016,4 hPa 0,0 l/m 0,0 km/h (0 Bft) NW 315 0 min 0,0 UV-I 10,9 C 14,2 C 0,0 km/h (0 Bft)
06.06.2014 23:30 15,7 C 25,7 C 15,5 C 15,2 C 14,2 C 0,0 C 72 % 76 % 0 % 1016,4 hPa 0,0 l/m 0,0 km/h (0 Bft) O-NO 67 0 min 0,0 UV-I 10,7 C 14,2 C 0,0 km/h (0 Bft)
06.06.2014 23:35 15,6 C 25,7 C 15,3 C 15,1 C 14,2 C 0,0 C 73 % 77 % 0 % 1016,4 hPa 0,0 l/m 0,0 km/h (0 Bft) NW 315 0 min 0,0 UV-I 10,8 C 14,2 C 0,0 km/h (0 Bft)
06.06.2014 23:40 15,5 C 25,7 C 15,3 C 15,0 C 14,1 C 0,0 C 73 % 77 % 0 % 1016,6 hPa 0,0 l/m 0,0 km/h (0 Bft) NW 315 0 min 0,0 UV-I 10,7 C 14,1 C 0,0 km/h (0 Bft)
06.06.2014 23:45 15,3 C 25,7 C 15,2 C 14,9 C 14,1 C 0,0 C 73 % 77 % 0 % 1016,6 hPa 0,0 l/m 0,0 km/h (0 Bft) NW 315 0 min 0,0 UV-I 10,5 C 14,1 C 0,0 km/h (0 Bft)
06.06.2014 23:50 15,2 C 25,7 C 15,1 C 14,8 C 13,9 C 0,0 C 74 % 77 % 0 % 1016,6 hPa 0,0 l/m 0,0 km/h (0 Bft) W 270 0 min 0,0 UV-I 10,6 C 13,9 C 0,0 km/h (0 Bft)
06.06.2014 23:55 15,0 C 25,7 C 14,9 C 14,6 C 13,7 C 0,0 C 74 % 77 % 0 % 1016,6 hPa 0,0 l/m 0,0 km/h (0 Bft) NO 45 0 min 0,0 UV-I 10,4 C 13,7 C 0,0 km/h (0 Bft)
_ Min-Zeit 05:35 08:35 05:30 05:10 05:15 00:00 13:25 16:35 00:00 20:00 - 00:00 - - - 00:00 05:35 05:15 00:00
Minimum _ 4,7 C 23,3 C 6,7 C 4,8 C 4,6 C 0,0 C 43 % 50 % 0 % 1015,9 hPa - 0,0 km/h (0 Bft) - - - 0,0 UV-I 2,7 C 4,6 C 0,0 km/h (0 Bft)
_ Max-Zeit 13:15 21:55 16:40 15:45 15:45 08:05 07:25 06:50 07:00 09:00 00:00 17:50 - - 07:00 07:20 20:05 15:45 17:50
Maximum _ 24,7 C 25,7 C 23,5 C 31,5 C 31,5 C 13,0 C 91 % 87 % 100 % 1019,8 hPa 0,0 l/m 5,8 km/h
O-NO (2 Bft)
- - 5 min 1,1 UV-I 13,2 C 31,5 C 10,6 km/h
O-NO (2 Bft)
Durchschnitt _ 16,1 C 24,4 C 15,7 C 19,6 C 19,4 C 3,6 C 65 % 70 % 55 % 1017,9 hPa #0,0 l/m 1,6 km/h (1 Bft) O-NO - #13:10 h 0,2 UV-I 9,0 C 19,4 C 2,0 km/h (1 Bft)
2014 www.wetterstation-wechselburg.de